Location: Unspecified
(0.0000°N, 0.0000°E)
Time: 11:27:32
(UTC+00:00)

JUGNU - Pass Details

Date: 18 February 2020
Orbit: 836 x 864 km, 20.0° (Epoch: 01 April)

Event Time Altitude Azimuth Distance (km) Brightness Sun altitude
Rises 20:31:24 0° 297° (WNW) 3,364 ? -33.6°
Reaches altitude 10° 20:33:58 10° 300° (WNW) 2,431 ? -34.2°
Enters shadow 20:36:36 27° 308° (NW) 1,532 ? -34.8°
